Regional Weather Roundup
Issued by NWS Bismarck, ND

Home | Current Version | Previous Version | Text Only | Print | Product List | Glossary On
Versions: 1 2 3 4 5 6 7 8 9 10 11 12 13 14 15 16 17 18 19 20 21 22 23 24 25 26 27 28 29 30 31 32 33 34 35 36 37 38 39 40 41 42 43 44 45 46 47 48 49 50
000
ASUS43 KBIS 231610
RWRBIS

NWR BROADCAST TEXT
NATIONAL WEATHER SERVICE BISMARCK ND
1100 AM CDT THU MAR 23 2017

NOTE: "FAIR" INDICATES FEW OR NO CLOUDS BELOW 12,000 FEET WITH NO
SIGNIFICANT WEATHER AND/OR OBSTRUCTIONS TO VISIBILITY.


CITY           SKY/WX    TMP DP  RH WIND       PRES   REMARKS
WILLISTON      FAIR      39  34  82 CALM      29.76F
MINOT          FAIR      41  32  70 W7        29.74R
MINOT AFB      CLOUDY    37  33  87 W3        29.74R
BISMARCK       LGT RAIN  37  34  89 N6        29.77S FOG
DICKINSON      CLOUDY    46  36  68 N12       29.72S
GARRISON         N/A     34  30  85 SW5       29.76R
HETTINGER ARPT PTSUNNY   41  38  89 NE10      29.72F
JAMESTOWN      CLOUDY    38  33  82 S15       29.77F
HAZEN          PTSUNNY   36  30  80 CALM      29.78R
MANDAN         LGT RAIN  34  34 100 N7        29.75F
RUGBY            N/A     34  32  93 CALM      29.74S
STANLEY        FAIR      37  37 100 CALM      29.77R
TIOGA          PTSUNNY   36  36 100 CALM      29.76R
WATFORD CITY   FAIR      37  37 100 CALM      29.75
$$

CITY           SKY/WX    TMP DP  RH WIND       PRES   REMARKS
GRAND FORKS    LGT RAIN  37  30  75 S16       29.82F
GRAND FORKS AF MOSUNNY   35  28  76 S12       29.81F
DEVILS LAKE    PTSUNNY   33  29  85 SE9       29.78R
FARGO          CLOUDY    41  32  70 S22G31    29.85F
GRAFTON        FAIR      34  28  80 S12       29.84F
GWINNER        SUNNY     41  32  70 MISG      29.81F
ROLLA          FAIR      36  34  93 CALM      29.73S
$$

CITY           SKY/WX    TMP DP  RH WIND       PRES   REMARKS
ABERDEEN       FAIR      41  28  60 S16       29.76F
MOBRIDGE       FAIR      48  32  53 SE10      29.70R
BUFFALO          N/A     46  41  82 NE15      29.63S
RAPID CITY     FAIR      54  41  61 N13       29.64S
GLASGOW        FAIR      42  32  67 NW8       29.77S
SIDNEY         FAIR      41  37  86 S5        29.76R
WOLF POINT     CLOUDY    41  36  82 CALM      29.78R
GLENDIVE       PTSUNNY   49  41  74 NW7       29.75F
MILES CITY     CLOUDY    47  42  83 W7        29.77R
BAKER          LGT RAIN  45  38  76 S8        29.75R
$$

CITY           SKY/WX    TMP DP  RH WIND       PRES   REMARKS
BILLINGS       CLOUDY    45  38  76 NW10      29.80R
GREAT FALLS    FAIR      48  27  44 W17       29.85S
REGINA         CLOUDY    32  30  93 NW9       29.79S
ESTEVAN        PTSUNNY   36  32  87 W7        29.76R
$$





USA.gov is the U.S. government's official web portal to all federal, state and local government web resources and services.